Погода в Микляихе

Россия / Ярославская область     57°47′47″N   39°37′52″E
темп.,
°C
ветер,
м/с
пор.,
м/с
влажн.,
%
обл.,
%
осадки,
мм/ч
давл.,
гПа
погр.,
м
17 апреля, сб
сб1700:00+6всв512766 0.0 1027391
03:00+5всв613805 0.0 1028340
06:00+4всв512803 0.0 1028342
09:00+8в710572 0.0 1028565
12:00+12в78422 0.0 1028969
15:00+13всв68352 0.0 10271190
18:00+12всв59435 0.0 1026693
21:00+7всв411655 0.0 1027253
18 апреля, вс
вс1800:00+5всв411760 0.0 1027239
03:00+4всв411820 0.0 1027236
06:00+3всв411835 0.0 1027270
09:00+8всв610630 0.0 1027841
12:00+11всв79435 0.0 10261491
15:00+12всв79426 0.0 10261833
18:00+10всв795745 0.0 10271228
21:00+5всв6117490 0.0 1029601
19 апреля, пн
пн1900:00+5в5107496 0.0 1029631
03:00+4всв51069100 0.0 1030536
06:00+2всв51068100 0.0 1030499
09:00+4в795896 0.0 1031776
12:00+7в7846100 0.0 10311257
15:00+8вюв7843100 0.0 10301482
18:00+7вюв6945100 0.0 10301335
21:00+5в51246100 0.0 1030602
20 апреля, вт
вт2000:00+3в61256100 0.0 1030495
03:00+1в6136287 0.0 1030429
06:00+1в6136375 0.0 1029497
09:00+4вюв81255100 0.0 1028806
12:00+8вюв91249100 0.0 10261284
15:00+10вюв9124898 0.0 10231452
18:00+9вюв91548100 0.0 10211270
21:00+7вюв101750100 0.0 10191012
21 апреля, ср
ср2100:00+5вюв101866100 0.4 1015950
03:00+4вюв102081100 1.9 1012874
06:00+4вюв101989100 2.7 1009887
09:00+5вюв101988100 3.1 1007953
12:00+7вюв112088100 0.3 10041331
15:00+8ююв101886100 1.9 10031470
18:00+5ю101694100 0.5 10051262
21:00+5ю91596100 0.6 1007991